RYR8TC LHBP-LIBR

Flight info

Callsign RYR8TC
Flight time 1h 11m
Altitude 37000
Route DUZLA DCT BAREB DCT SIVLA DCT MADOS DCT BEVIS DCT TROTA
Aircraft B738/M-SDE2E3FGHIRWXY/LB1

Departure

Time 2026-04-26 08:49
Airport Budapest Liszt Ferenc International Airport (LHBP)

Arrival

Time 2026-04-26 10:01
Airport Brindisi Airport (LIBR)
Time Latitude Longitude Altitude Speed Heading
2026-04-26 08:15 47.43623 19.25915 456 ft 0 kts 312°
2026-04-26 08:35 47.43611 19.25936 456 ft 4 kts 296°
2026-04-26 08:36 47.43606 19.25971 456 ft 4 kts 249°
2026-04-26 08:36 47.43621 19.26002 454 ft 4 kts 222°
2026-04-26 08:36 47.43626 19.26009 455 ft 1 kts 222°
2026-04-26 08:44 47.43624 19.26007 456 ft 1 kts 223°
2026-04-26 08:45 47.43621 19.26003 456 ft 1 kts 223°
2026-04-26 08:45 47.43618 19.25998 456 ft 1 kts 223°
2026-04-26 08:45 47.43611 19.25989 455 ft 1 kts 224°
2026-04-26 08:45 47.43596 19.25966 456 ft 7 kts 225°
2026-04-26 08:46 47.43543 19.25897 454 ft 11 kts 220°
2026-04-26 08:46 47.43495 19.25833 456 ft 7 kts 231°
2026-04-26 08:46 47.43508 19.25771 455 ft 7 kts 306°
2026-04-26 08:46 47.43539 19.25720 456 ft 7 kts 303°
2026-04-26 08:47 47.43538 19.25654 456 ft 7 kts 244°
2026-04-26 08:47 47.43507 19.25607 456 ft 7 kts 224°
2026-04-26 08:47 47.43427 19.25498 456 ft 23 kts 222°
2026-04-26 08:47 47.43308 19.25337 455 ft 23 kts 222°
2026-04-26 08:48 47.43194 19.25186 455 ft 20 kts 223°
2026-04-26 08:48 47.43102 19.25036 456 ft 20 kts 264°
2026-04-26 08:48 47.43151 19.24866 454 ft 19 kts 314°
2026-04-26 08:48 47.43390 19.24479 451 ft 86 kts 312°
2026-04-26 08:49 47.43930 19.23612 465 ft 143 kts 314°
2026-04-26 08:49 47.44703 19.22479 835 ft 172 kts 315°
2026-04-26 08:49 47.45677 19.21118 1021 ft 206 kts 319°
2026-04-26 08:49 47.46762 19.19657 1895 ft 209 kts 314°
2026-04-26 08:50 47.47671 19.18039 2802 ft 204 kts 310°
2026-04-26 08:50 47.48464 19.16434 3903 ft 186 kts 300°
2026-04-26 08:50 47.48706 19.14555 4600 ft 197 kts 273°
2026-04-26 08:50 47.48233 19.12466 4801 ft 235 kts 243°
2026-04-26 08:51 47.45262 19.09285 5465 ft 285 kts 213°
2026-04-26 08:51 47.43469 19.07993 6155 ft 289 kts 213°
2026-04-26 08:51 47.41652 19.06711 6864 ft 291 kts 214°
2026-04-26 08:52 47.39819 19.05409 7548 ft 293 kts 214°
2026-04-26 08:52 47.37976 19.04084 8270 ft 295 kts 214°
2026-04-26 08:52 47.36129 19.02742 8986 ft 298 kts 214°
2026-04-26 08:52 47.34263 19.01377 9719 ft 301 kts 214°
2026-04-26 08:53 47.32382 18.99994 10363 ft 307 kts 214°
2026-04-26 08:53 47.30402 18.98523 10549 ft 330 kts 214°
2026-04-26 08:53 47.28288 18.96949 10753 ft 350 kts 213°
2026-04-26 08:53 47.26080 18.95316 11256 ft 359 kts 213°
2026-04-26 08:54 47.23839 18.93670 11959 ft 360 kts 213°
2026-04-26 08:54 47.21621 18.92044 12709 ft 362 kts 213°
2026-04-26 08:54 47.19362 18.90384 13450 ft 364 kts 212°
2026-04-26 08:54 47.17086 18.88712 14172 ft 367 kts 212°
2026-04-26 08:55 47.14790 18.87022 14818 ft 372 kts 212°
2026-04-26 08:55 47.12462 18.85309 15431 ft 377 kts 212°
2026-04-26 08:55 47.10106 18.83577 16052 ft 381 kts 212°
2026-04-26 08:55 47.07716 18.81822 16659 ft 386 kts 212°
2026-04-26 08:56 47.05312 18.80062 17365 ft 388 kts 212°
2026-04-26 08:56 47.02881 18.78282 17968 ft 393 kts 212°
2026-04-26 08:56 47.00413 18.76475 18521 ft 399 kts 212°
2026-04-26 08:56 46.97918 18.74650 19059 ft 403 kts 212°
2026-04-26 08:57 46.95329 18.73002 19600 ft 411 kts 203°
2026-04-26 08:57 46.92519 18.71997 20149 ft 419 kts 195°
2026-04-26 08:57 46.89635 18.71239 20678 ft 423 kts 194°
2026-04-26 08:57 46.86715 18.70505 21167 ft 428 kts 193°
2026-04-26 08:58 46.83770 18.69766 21656 ft 432 kts 193°
2026-04-26 08:58 46.80798 18.69009 22151 ft 435 kts 194°
2026-04-26 08:58 46.77802 18.68234 22649 ft 439 kts 194°
2026-04-26 08:58 46.74780 18.67442 23134 ft 443 kts 194°
2026-04-26 08:59 46.71737 18.66638 23603 ft 447 kts 194°
2026-04-26 08:59 46.68669 18.65825 24015 ft 450 kts 194°
2026-04-26 08:59 46.65585 18.65008 24521 ft 449 kts 193°
2026-04-26 08:59 46.62519 18.64196 25022 ft 449 kts 193°
2026-04-26 09:00 46.59431 18.63379 25408 ft 452 kts 193°
2026-04-26 09:00 46.56323 18.62557 25769 ft 455 kts 193°
2026-04-26 09:00 46.53240 18.61743 26154 ft 458 kts 193°
2026-04-26 09:00 46.50102 18.60915 26572 ft 459 kts 193°
2026-04-26 09:01 46.46950 18.60085 26962 ft 461 kts 193°
2026-04-26 09:01 46.43800 18.59258 27417 ft 461 kts 192°
2026-04-26 09:01 46.40640 18.58428 27781 ft 463 kts 192°
2026-04-26 09:01 46.37460 18.57593 28094 ft 466 kts 192°
2026-04-26 09:02 46.34259 18.56755 28430 ft 468 kts 192°
2026-04-26 09:02 46.31043 18.55913 28771 ft 470 kts 192°
2026-04-26 09:02 46.27814 18.55069 29108 ft 472 kts 192°
2026-04-26 09:02 46.24565 18.54220 29325 ft 477 kts 192°
2026-04-26 09:03 46.21289 18.53366 29595 ft 480 kts 192°
2026-04-26 09:03 46.17995 18.52508 29973 ft 480 kts 192°
2026-04-26 09:03 46.14702 18.51651 30242 ft 483 kts 192°
2026-04-26 09:03 46.11381 18.50788 30440 ft 486 kts 192°
2026-04-26 09:04 46.08063 18.49927 30866 ft 483 kts 192°
2026-04-26 09:04 46.04780 18.49079 31430 ft 476 kts 192°
2026-04-26 09:04 46.01539 18.48241 31916 ft 472 kts 192°
2026-04-26 09:04 45.98300 18.47403 32187 ft 473 kts 192°
2026-04-26 09:05 45.95055 18.46563 32427 ft 474 kts 192°
2026-04-26 09:05 45.91817 18.45728 32852 ft 471 kts 192°
2026-04-26 09:05 45.88600 18.44899 33292 ft 468 kts 192°
2026-04-26 09:05 45.85437 18.44084 33577 ft 468 kts 192°
2026-04-26 09:06 45.82237 18.43261 33934 ft 466 kts 192°
2026-04-26 09:06 45.79056 18.42444 34288 ft 464 kts 192°
2026-04-26 09:06 45.75884 18.41631 34583 ft 463 kts 192°
2026-04-26 09:06 45.72691 18.41028 34813 ft 464 kts 185°
2026-04-26 09:07 45.69460 18.40815 35048 ft 465 kts 184°
2026-04-26 09:07 45.66230 18.40707 35300 ft 463 kts 183°
2026-04-26 09:07 45.63016 18.40625 35640 ft 461 kts 183°
2026-04-26 09:07 45.59812 18.40530 35870 ft 460 kts 184°
2026-04-26 09:08 45.56604 18.40412 36039 ft 462 kts 184°
2026-04-26 09:08 45.53394 18.40275 36254 ft 461 kts 184°
2026-04-26 09:08 45.50191 18.40125 36507 ft 460 kts 184°
2026-04-26 09:08 45.46987 18.39970 36731 ft 460 kts 184°
2026-04-26 09:09 45.43791 18.39814 36901 ft 460 kts 185°
2026-04-26 09:09 45.40583 18.39656 37074 ft 461 kts 185°
2026-04-26 09:09 45.37371 18.39500 37102 ft 464 kts 185°
2026-04-26 09:10 45.30933 18.39190 37110 ft 461 kts 185°
2026-04-26 09:10 45.24541 18.38885 37115 ft 458 kts 185°
2026-04-26 09:11 45.18220 18.38583 37123 ft 456 kts 185°
2026-04-26 09:11 45.11888 18.38281 37115 ft 455 kts 185°
2026-04-26 09:12 45.05568 18.37959 37114 ft 454 kts 185°
2026-04-26 09:12 44.99251 18.37604 37118 ft 455 kts 185°
2026-04-26 09:13 44.92912 18.37246 37117 ft 456 kts 185°
2026-04-26 09:13 44.86554 18.36892 37115 ft 458 kts 185°
2026-04-26 09:14 44.80176 18.36541 37129 ft 459 kts 185°
2026-04-26 09:14 44.73779 18.36190 37131 ft 461 kts 185°
2026-04-26 09:15 44.67364 18.35839 37128 ft 462 kts 185°
2026-04-26 09:15 44.60935 18.35488 37125 ft 462 kts 185°
2026-04-26 09:16 44.54508 18.35138 37128 ft 462 kts 185°
2026-04-26 09:16 44.48093 18.34790 37132 ft 461 kts 185°
2026-04-26 09:17 44.41696 18.34443 37133 ft 460 kts 185°
2026-04-26 09:17 44.35311 18.34097 37138 ft 458 kts 185°
2026-04-26 09:18 44.28939 18.33753 37137 ft 458 kts 185°
2026-04-26 09:18 44.22578 18.33410 37139 ft 456 kts 185°
2026-04-26 09:19 44.16234 18.33068 37118 ft 455 kts 185°
2026-04-26 09:19 44.09909 18.32727 37129 ft 455 kts 185°
2026-04-26 09:20 44.03633 18.32392 37143 ft 453 kts 185°
2026-04-26 09:20 43.97325 18.32055 37136 ft 453 kts 185°
2026-04-26 09:21 43.91022 18.31719 37128 ft 454 kts 185°
2026-04-26 09:21 43.84716 18.31383 37130 ft 454 kts 185°
2026-04-26 09:22 43.78396 18.31047 37132 ft 454 kts 185°
2026-04-26 09:22 43.72091 18.30713 37123 ft 454 kts 185°
2026-04-26 09:23 43.65767 18.30378 37135 ft 454 kts 185°
2026-04-26 09:23 43.59460 18.30045 37127 ft 454 kts 185°
2026-04-26 09:24 43.53134 18.29712 37115 ft 455 kts 185°
2026-04-26 09:24 43.46848 18.29381 37111 ft 455 kts 185°
2026-04-26 09:25 43.40520 18.29050 37105 ft 455 kts 185°
2026-04-26 09:25 43.34194 18.28719 37103 ft 455 kts 185°
2026-04-26 09:26 43.27873 18.28388 37100 ft 455 kts 185°
2026-04-26 09:26 43.21548 18.28059 37094 ft 455 kts 185°
2026-04-26 09:27 43.15231 18.27730 37098 ft 454 kts 185°
2026-04-26 09:27 43.08912 18.27402 37086 ft 454 kts 185°
2026-04-26 09:28 43.02609 18.27076 37089 ft 453 kts 185°
2026-04-26 09:28 42.96312 18.26750 37088 ft 452 kts 185°
2026-04-26 09:29 42.91086 18.26480 37080 ft 452 kts 186°
2026-04-26 09:29 42.84808 18.26157 37092 ft 451 kts 186°
2026-04-26 09:30 42.78537 18.25834 37094 ft 451 kts 186°
2026-04-26 09:30 42.72274 18.25513 37102 ft 450 kts 186°
2026-04-26 09:31 42.66049 18.25194 37102 ft 450 kts 186°
2026-04-26 09:31 42.59794 18.24873 37071 ft 450 kts 186°
2026-04-26 09:31 42.56642 18.24657 36592 ft 455 kts 187°
2026-04-26 09:32 42.53496 18.24396 36055 ft 452 kts 187°
2026-04-26 09:32 42.50364 18.24120 35475 ft 451 kts 187°
2026-04-26 09:32 42.47234 18.23843 34904 ft 451 kts 187°
2026-04-26 09:32 42.44118 18.23573 34496 ft 446 kts 187°
2026-04-26 09:33 42.41030 18.23312 34042 ft 443 kts 187°
2026-04-26 09:33 42.37962 18.23056 33551 ft 440 kts 187°
2026-04-26 09:33 42.34924 18.22806 33086 ft 436 kts 187°
2026-04-26 09:33 42.31914 18.22559 32658 ft 432 kts 187°
2026-04-26 09:34 42.28926 18.22314 32230 ft 428 kts 187°
2026-04-26 09:34 42.25964 18.22071 31812 ft 424 kts 187°
2026-04-26 09:34 42.23032 18.21831 31400 ft 421 kts 187°
2026-04-26 09:34 42.20115 18.21591 30991 ft 418 kts 187°
2026-04-26 09:35 42.17224 18.21354 30585 ft 415 kts 187°
2026-04-26 09:35 42.14344 18.21118 30178 ft 412 kts 187°
2026-04-26 09:35 42.11491 18.20885 29713 ft 409 kts 187°
2026-04-26 09:35 42.08659 18.20654 29288 ft 405 kts 187°
2026-04-26 09:36 42.05857 18.20425 28862 ft 402 kts 187°
2026-04-26 09:36 42.03082 18.20199 28454 ft 398 kts 187°
2026-04-26 09:36 42.00331 18.19974 28032 ft 395 kts 187°
2026-04-26 09:36 41.97604 18.19752 27635 ft 391 kts 187°
2026-04-26 09:37 41.94893 18.19531 27219 ft 388 kts 187°
2026-04-26 09:37 41.92207 18.19299 26821 ft 385 kts 188°
2026-04-26 09:37 41.89556 18.18957 26423 ft 381 kts 190°
2026-04-26 09:37 41.86928 18.18555 26027 ft 379 kts 190°
2026-04-26 09:38 41.84321 18.18141 25636 ft 376 kts 191°
2026-04-26 09:38 41.81761 18.17737 25252 ft 374 kts 191°
2026-04-26 09:38 41.79187 18.17338 24866 ft 372 kts 191°
2026-04-26 09:38 41.76603 18.16944 24467 ft 370 kts 190°
2026-04-26 09:39 41.74044 18.16560 24093 ft 369 kts 190°
2026-04-26 09:39 41.71499 18.16181 23692 ft 368 kts 190°
2026-04-26 09:39 41.68957 18.15804 23239 ft 366 kts 190°
2026-04-26 09:39 41.66431 18.15432 22824 ft 364 kts 190°
2026-04-26 09:40 41.63922 18.15062 22419 ft 362 kts 190°
2026-04-26 09:40 41.61433 18.14697 22029 ft 359 kts 190°
2026-04-26 09:40 41.58959 18.14333 21653 ft 356 kts 190°
2026-04-26 09:40 41.56501 18.13973 21279 ft 354 kts 189°
2026-04-26 09:41 41.54057 18.13614 20902 ft 352 kts 189°
2026-04-26 09:41 41.51629 18.13258 20531 ft 350 kts 189°
2026-04-26 09:41 41.49215 18.12904 20165 ft 348 kts 189°
2026-04-26 09:41 41.46815 18.12552 19806 ft 347 kts 189°
2026-04-26 09:42 41.44418 18.12202 19436 ft 345 kts 189°
2026-04-26 09:42 41.42037 18.11853 19065 ft 344 kts 189°
2026-04-26 09:42 41.39663 18.11506 18704 ft 343 kts 189°
2026-04-26 09:42 41.37292 18.11160 18309 ft 343 kts 189°
2026-04-26 09:43 41.34931 18.10816 18006 ft 338 kts 189°
2026-04-26 09:43 41.32594 18.10475 17513 ft 340 kts 189°
2026-04-26 09:43 41.30257 18.10135 17169 ft 337 kts 189°
2026-04-26 09:43 41.27929 18.09796 16790 ft 335 kts 189°
2026-04-26 09:44 41.25648 18.09464 16432 ft 334 kts 189°
2026-04-26 09:44 41.23314 18.09125 16069 ft 332 kts 189°
2026-04-26 09:44 41.21021 18.08792 15712 ft 331 kts 188°
2026-04-26 09:44 41.18740 18.08460 15356 ft 329 kts 188°
2026-04-26 09:45 41.16497 18.08135 14998 ft 328 kts 188°
2026-04-26 09:45 41.14229 18.07806 14646 ft 327 kts 188°
2026-04-26 09:45 41.11971 18.07479 14296 ft 326 kts 188°
2026-04-26 09:45 41.09720 18.07153 13946 ft 325 kts 188°
2026-04-26 09:46 41.07470 18.06828 13542 ft 325 kts 188°
2026-04-26 09:46 41.05236 18.06472 13156 ft 323 kts 191°
2026-04-26 09:46 41.03032 18.05903 12751 ft 322 kts 194°
2026-04-26 09:46 41.00844 18.05251 12386 ft 320 kts 195°
2026-04-26 09:47 40.98676 18.04593 12021 ft 319 kts 194°
2026-04-26 09:47 40.96515 18.03947 11665 ft 318 kts 194°
2026-04-26 09:47 40.94360 18.03314 11322 ft 317 kts 194°
2026-04-26 09:47 40.92212 18.02692 10977 ft 316 kts 194°
2026-04-26 09:48 40.90070 18.02075 10633 ft 315 kts 194°
2026-04-26 09:48 40.87954 18.01470 10475 ft 307 kts 194°
2026-04-26 09:48 40.85888 18.00881 10321 ft 300 kts 194°
2026-04-26 09:48 40.83881 18.00310 10187 ft 292 kts 194°
2026-04-26 09:49 40.81942 17.99759 10049 ft 280 kts 194°
2026-04-26 09:49 40.80054 17.99221 9717 ft 273 kts 194°
2026-04-26 09:49 40.78209 17.98697 9443 ft 269 kts 194°
2026-04-26 09:49 40.76379 17.98176 9145 ft 271 kts 194°
2026-04-26 09:50 40.74525 17.97649 8869 ft 274 kts 193°
2026-04-26 09:50 40.72685 17.97126 8597 ft 274 kts 193°
2026-04-26 09:50 40.70829 17.96600 8314 ft 272 kts 193°
2026-04-26 09:50 40.68989 17.96079 8044 ft 269 kts 193°
2026-04-26 09:51 40.67135 17.95867 7750 ft 269 kts 171°
2026-04-26 09:51 40.65422 17.96777 7513 ft 265 kts 144°
2026-04-26 09:51 40.64144 17.98486 7269 ft 262 kts 123°
2026-04-26 09:51 40.63126 18.00478 7009 ft 262 kts 122°
2026-04-26 09:52 40.62122 18.02485 6725 ft 262 kts 122°
2026-04-26 09:52 40.60173 18.06368 6180 ft 244 kts 122°
2026-04-26 09:52 40.59255 18.08188 5928 ft 236 kts 122°
2026-04-26 09:53 40.58351 18.09974 5802 ft 231 kts 122°
2026-04-26 09:53 40.57463 18.11726 5698 ft 231 kts 122°
2026-04-26 09:53 40.56563 18.13498 5542 ft 235 kts 122°
2026-04-26 09:53 40.55652 18.15286 5408 ft 235 kts 122°
2026-04-26 09:54 40.54752 18.17052 5303 ft 228 kts 122°
2026-04-26 09:54 40.53871 18.18735 5134 ft 219 kts 128°
2026-04-26 09:54 40.52650 18.19800 4919 ft 215 kts 166°
2026-04-26 09:54 40.51171 18.19747 4711 ft 216 kts 200°
2026-04-26 09:55 40.49940 18.18678 4482 ft 212 kts 233°
2026-04-26 09:55 40.49348 18.16960 4255 ft 206 kts 267°
2026-04-26 09:55 40.49543 18.15142 4034 ft 200 kts 295°
2026-04-26 09:55 40.50268 18.13610 3811 ft 197 kts 317°
2026-04-26 09:56 40.51331 18.12471 3597 ft 192 kts 320°
2026-04-26 09:56 40.52278 18.11293 3383 ft 188 kts 317°
2026-04-26 09:56 40.53230 18.10106 3169 ft 189 kts 318°
2026-04-26 09:56 40.54193 18.08926 2938 ft 188 kts 318°
2026-04-26 09:57 40.55142 18.07766 2737 ft 183 kts 318°
2026-04-26 09:57 40.56036 18.06671 2517 ft 168 kts 318°
2026-04-26 09:57 40.56862 18.05660 2380 ft 159 kts 318°
2026-04-26 09:57 40.57675 18.04668 2180 ft 156 kts 318°
2026-04-26 09:58 40.58442 18.03732 2062 ft 145 kts 318°
2026-04-26 09:58 40.59172 18.02837 1802 ft 140 kts 317°
2026-04-26 09:58 40.59876 18.01975 1637 ft 136 kts 318°
2026-04-26 09:58 40.60562 18.01119 1434 ft 139 kts 317°
2026-04-26 09:59 40.61277 18.00237 1249 ft 142 kts 319°
2026-04-26 09:59 40.61997 17.99374 1049 ft 138 kts 319°
2026-04-26 09:59 40.62687 17.98523 869 ft 134 kts 318°
2026-04-26 09:59 40.63377 17.97673 723 ft 136 kts 319°
2026-04-26 10:00 40.64079 17.96823 504 ft 137 kts 320°
2026-04-26 10:00 40.64777 17.95980 321 ft 135 kts 320°
2026-04-26 10:00 40.65464 17.95145 146 ft 135 kts 320°
2026-04-26 10:00 40.66141 17.94327 40 ft 123 kts 317°
2026-04-26 10:01 40.66675 17.93670 39 ft 84 kts 317°
2026-04-26 10:01 40.66998 17.93275 40 ft 50 kts 317°
2026-04-26 10:01 40.67194 17.93035 40 ft 23 kts 317°
2026-04-26 10:01 40.67321 17.93057 42 ft 22 kts 46°
2026-04-26 10:02 40.67290 17.93219 43 ft 21 kts 137°
2026-04-26 10:02 40.67181 17.93350 43 ft 21 kts 137°
2026-04-26 10:02 40.67077 17.93477 43 ft 20 kts 137°
2026-04-26 10:02 40.66975 17.93600 43 ft 20 kts 137°
2026-04-26 10:03 40.66877 17.93719 43 ft 19 kts 137°
2026-04-26 10:03 40.66782 17.93836 43 ft 18 kts 136°
2026-04-26 10:03 40.66692 17.93947 43 ft 18 kts 136°
2026-04-26 10:03 40.66604 17.94056 43 ft 17 kts 141°
2026-04-26 10:04 40.66516 17.94158 43 ft 16 kts 136°
2026-04-26 10:04 40.66434 17.94257 43 ft 16 kts 137°
2026-04-26 10:04 40.66351 17.94358 43 ft 17 kts 137°
2026-04-26 10:04 40.66263 17.94465 43 ft 18 kts 136°
2026-04-26 10:05 40.66163 17.94589 43 ft 20 kts 137°
2026-04-26 10:05 40.66057 17.94703 43 ft 19 kts 163°
2026-04-26 10:05 40.65965 17.94595 38 ft 19 kts 232°
2026-04-26 10:05 40.65886 17.94463 41 ft 18 kts 233°
2026-04-26 10:06 40.65812 17.94335 42 ft 17 kts 232°
2026-04-26 10:06 40.65741 17.94213 43 ft 16 kts 232°
2026-04-26 10:06 40.65673 17.94097 43 ft 16 kts 232°
2026-04-26 10:06 40.65652 17.94050 43 ft 1 kts 238°
2026-04-26 10:07 40.65644 17.94042 43 ft 1 kts 222°
2026-04-26 10:07 40.65628 17.94016 43 ft 6 kts 239°
2026-04-26 10:07 40.65635 17.93988 43 ft 3 kts 328°
2026-04-26 10:07 40.65658 17.93970 43 ft 6 kts 327°
2026-04-26 10:08 40.65692 17.93937 43 ft 1 kts 323°
2026-04-26 10:08 40.65699 17.93930 43 ft 1 kts 323°
2026-04-26 10:08 40.65700 17.93928 43 ft 0 kts 323°